Flag for U.S.A. Weather past 2 weeks in Scottsdale, Arizona, U.S.A.

Now
87 °F

Clear.


Feels Like: 86 °F
Forecast: 80 / 99 °F
Wind: No wind

Location: Scottsdale Airport

Current Time: Jul 7, 2015 at 4:33:31 AM

Latest Report: Jul 7, 2015 at 3:53 AM


Visibility: 10 mi

Pressure: 29.80 "Hg

Humidity: 36%

Dew point: 57 °F

Location of ScottsdaleLocation

Historic Weather in Scottsdale — Graph

°F

Scottsdale temperature yesterday

Maximum temperature yesterday: 100 °F (at 4:53 PM)
Minimum temperature yesterday: 80 °F (at 6:53 AM)
Average temperature yesterday: 91 °F

Past Weeks' High & Low Weather Summary

 TemperatureHumidityPressure
High109 °F (Jun 24, 2:53 PM)70% (Jun 27, 2:53 AM)29.93 "Hg (Jun 27, 2:53 AM)
Low80 °F (Jul 3, 5:53 AM)5% (Jun 24, 1:53 PM)29.64 "Hg (Jun 23, 5:53 PM)
Average94 °F29%29.79 "Hg
* Reported Jun 22 2:53 AM — Jul 7 2:53 AM, Scottsdale, Weather by CustomWeather, © 2015

Note: Actual official high and low records may vary slightly from our data, if they occured in-between our weather recording intervals... More about our weather records

Advertising

Scottsdale weather history for previous 24 hours

 ConditionsComfort  
Time TempWeatherWind HumidityBarometerVisibility
2:53 AM
Tue, Jul 7
88 °FClear.No wind35%29.80 "Hg10 mi
1:53 AM90 °FClear.No wind34%29.80 "Hg10 mi
12:53 AM90 °FClear.No wind32%29.80 "Hg10 mi
11:53 PM
Mon, Jul 6
91 °FClear.No wind30%29.80 "Hg10 mi
10:53 PM92 °FPassing clouds.3 mph30%29.80 "Hg10 mi
9:53 PM94 °FClear.No wind27%29.78 "Hg10 mi
8:53 PM95 °FClear.3 mph27%29.77 "Hg8 mi
7:53 PM98 °FPassing clouds.8 mph24%29.76 "Hg10 mi
6:53 PM100 °FSunny.8 mph24%29.74 "Hg10 mi
5:53 PM100 °FSunny.3 mph24%29.74 "Hg10 mi
4:53 PM100 °FSunny.9 mph25%29.75 "Hg10 mi
3:53 PM99 °FSunny.10 mph26%29.77 "Hg10 mi
2:53 PM99 °FSunny.13 mph25%29.80 "Hg10 mi
1:53 PM98 °FSunny.7 mph27%29.84 "Hg10 mi
12:53 PM96 °FSunny.8 mph31%29.87 "Hg10 mi
11:53 AM93 °FSunny.6 mph36%29.90 "Hg10 mi
10:53 AM90 °FSunny.5 mph41%29.92 "Hg10 mi
9:53 AM87 °FSunny.No wind46%29.93 "Hg10 mi
8:53 AM85 °FSunny.3 mph51%29.93 "Hg10 mi
7:53 AM80 °FSunny.3 mph62%29.93 "Hg10 mi
6:53 AM80 °FLight rain. Scattered clouds.No wind62%29.92 "Hg10 mi
5:53 AM82 °FThundershowers. Scattered clouds.3 mph55%29.93 "Hg10 mi
4:53 AM82 °FPassing clouds.No wind63%29.91 "Hg10 mi
Weather by CustomWeather, © 2015

See weather overviewHow to use our weather pages